[[{"header":{"parameterUnit":"m.s-1","parameterCategory":1,"la1":30.2991,"la2":30.254,"lo1":-89.0895,"lo2":-89.0444,"dy":0.0017,"dx":0.0017,"nx":28,"ny":28,"refTime":"2024-05-22T21:00:00:Z","depth":0,"parameterNumber":2,"parameterNumberName":"U-component_of_WINDS"},"data":[0,0,0,0,0,0,0,0,0,0,0,0,0,0,0,0,0,0,0,0,0,0,0,0,0,0,0,0,0,0,0,0,0,0,0,0,0,0,0,0,0,0,0,0,0,0,0,0,0,0,0,0,0,0,0,0,0,0,-1.1554,-1.1553,0,-1.148,-1.1479,-1.1478,-1.1433,-1.1433,-1.1433,-1.1433,-1.1357,-1.1355,-1.1353,0,0,0,0,0,0,0,0,0,0,0,0,0,-1.1657,-1.1655,-1.1554,-1.1553,-1.1552,-1.148,-1.1479,-1.1478,-1.1433,-1.1433,-1.1433,-1.1433,-1.1357,-1.1355,-1.1353,0,0,0,0,0,0,0,0,0,0,0,0,0,-1.16,-1.1655,-1.1554,-1.1521,-1.1517,-1.148,-1.1479,-1.1478,-1.1433,-1.1433,-1.1433,-1.1432,-1.1358,-1.1356,-1.1353,-1.1343,0,0,-1.1345,-1.1343,0,0,0,0,0,0,0,0,-1.1604,-1.1597,-1.1527,-1.1523,-1.1519,-1.1466,-1.1487,-1.1433,-1.1433,-1.1465,-1.1433,-1.1432,-1.1393,-1.1388,-1.1375,-1.1339,-1.1336,-1.1344,-1.1343,-1.1341,-1.1341,0,0,0,0,0,0,0,-1.1608,-1.16,-1.1525,-1.1526,-1.1521,-1.151,-1.1502,-1.1477,-1.1432,-1.1463,-1.1459,-1.1451,-1.1391,-1.1377,-1.1372,-1.1335,-1.1344,-1.1342,-1.134,-1.1339,-1.1288,-1.1288,0,0,0,0,0,0,-1.1617,-1.1603,-1.1527,-1.1522,-1.1561,-1.1509,-1.1499,-1.1483,-1.1432,-1.1424,-1.1451,-1.1449,-1.1382,-1.1376,-1.137,-1.1354,-1.1342,-1.1339,-1.1337,-1.1287,-1.1288,-1.1288,0,0,0,0,0,0,-1.1619,-1.161,-1.153,-1.1562,-1.1551,-1.1507,-1.1489,-1.1482,-1.1468,-1.1424,-1.1416,-1.1445,-1.1382,-1.1373,-1.135,-1.1351,-1.1338,-1.1335,-1.1287,-1.1287,-1.1288,-1.1324,0,0,0,0,0,0,-1.1622,-1.1611,-1.1607,-1.1562,-1.1549,-1.1512,-1.1489,-1.1481,-1.1463,-1.146,-1.1416,-1.1408,-1.1381,-1.1354,-1.1347,-1.1347,-1.1333,-1.1287,-1.1287,-1.1288,-1.1322,-1.1325,-1.1328,0,0,0,0,0,-1.1626,-1.162,-1.1607,-1.1598,-1.1543,-1.1512,-1.1504,-1.1472,-1.1464,-1.1459,-1.1431,-1.141,-1.1352,-1.1352,-1.1344,-1.1343,-1.1287,-1.1287,-1.1288,-1.1321,-1.1325,-1.1328,0,0,0,0,0,0,-1.1666,-1.1614,-1.1599,-1.1578,-1.155,-1.1504,-1.1497,-1.1477,-1.1451,-1.1449,-1.141,-1.1401,-1.1381,-1.136,-1.136,-1.1331,-1.1317,-1.1316,-1.1345,-1.1348,-1.1351,-1.1357,-1.1331,0,0,0,0,0,-1.1673,-1.1652,-1.1607,-1.1593,-1.158,-1.1541,-1.1526,-1.1504,-1.1473,-1.1461,-1.1431,-1.1402,-1.1377,-1.1362,-1.1337,-1.1319,-1.1309,-1.1315,-1.1318,-1.132,-1.132,-1.1309,-1.1311,-1.129,-1.129,-1.129,0,0,-1.1686,-1.1655,-1.1644,-1.1601,-1.1576,-1.1555,-1.1531,-1.151,-1.1494,-1.1458,-1.1434,-1.1411,-1.1376,-1.1355,-1.1345,-1.1337,-1.1323,-1.1321,-1.1323,-1.1321,-1.131,-1.1312,-1.1313,-1.129,-1.129,-1.129,0,0,-1.17,-1.1674,-1.1659,-1.1635,-1.1599,-1.1573,-1.157,-1.1527,-1.151,-1.1486,-1.1458,-1.1439,-1.1397,-1.1373,-1.1355,-1.136,-1.134,-1.1353,-1.1368,-1.1358,-1.136,-1.1361,-1.1363,-1.1364,-1.1353,-1.1353,-1.1353,0,-1.1721,-1.1688,-1.1655,-1.1635,-1.1617,-1.1583,-1.1568,-1.1547,-1.1504,-1.1492,-1.1484,-1.1431,-1.1405,-1.1378,-1.1379,-1.1366,-1.1361,-1.1358,-1.1362,-1.1363,-1.1364,-1.1365,-1.1366,-1.1355,-1.1355,-1.1354,-1.1354,0,-1.1716,-1.1694,-1.1686,-1.1646,-1.1627,-1.161,-1.1574,-1.1559,-1.1539,-1.1514,-1.1489,-1.1457,-1.1425,-1.1417,-1.1397,-1.1388,-1.1384,-1.137,-1.1355,-1.1368,-1.1369,-1.1369,-1.1357,-1.1357,-1.1356,-1.1356,0,0,-1.1752,-1.1693,-1.1691,-1.1672,-1.1629,-1.1612,-1.1593,-1.1562,-1.155,-1.1521,-1.1505,-1.1471,-1.1457,-1.1437,-1.1414,-1.1406,-1.1412,-1.1392,-1.1391,-1.1397,-1.1399,-1.141,-1.1411,-1.1398,-1.1398,-1.1398,-1.1402,0,-1.1759,-1.1724,-1.1693,-1.167,-1.1649,-1.1617,-1.1601,-1.1573,-1.155,-1.1529,-1.1503,-1.1479,-1.1463,-1.1451,-1.1441,-1.1413,-1.1411,-1.1412,-1.1382,-1.1382,-1.1392,-1.1411,-1.1422,-1.1428,-1.1402,-1.1402,-1.1402,0,-1.1762,-1.1735,-1.1709,-1.1669,-1.1659,-1.1645,-1.1614,-1.1594,-1.1562,-1.1545,-1.1524,-1.15,-1.1479,-1.1467,-1.1438,-1.1439,-1.1425,-1.141,-1.1409,-1.1405,-1.1392,-1.1407,-1.1429,-1.1429,-1.1402,-1.1402,-1.1402,0,-1.1791,-1.1748,-1.1727,-1.1712,-1.1664,-1.1655,-1.1635,-1.1602,-1.1585,-1.1558,-1.1547,-1.1518,-1.1502,-1.148,-1.1449,-1.1443,-1.1423,-1.1408,-1.1408,-1.1409,-1.1405,-1.1406,-1.1424,-1.1397,-1.1397,-1.1397,-1.1397,0,-1.1802,-1.1787,-1.174,-1.1727,-1.171,-1.1675,-1.1659,-1.1636,-1.1607,-1.1589,-1.156,-1.1544,-1.1504,-1.1483,-1.1459,-1.1438,-1.1431,-1.1417,-1.1411,-1.142,-1.1421,-1.141,-1.1408,-1.1397,-1.1397,-1.1397,-1.1397,0,-1.1831,-1.1798,-1.1773,-1.173,-1.1719,-1.1708,-1.1671,-1.1657,-1.1633,-1.161,-1.1603,-1.1564,-1.1538,-1.1505,-1.1469,-1.1452,-1.1434,-1.1425,-1.1445,-1.1441,-1.1443,-1.1444,-1.1455,-1.1454,-1.1428,-1.1428,-1.1429,0,-1.184,-1.1828,-1.1783,-1.1769,-1.175,-1.1727,-1.171,-1.1675,-1.1658,-1.1621,-1.1612,-1.1584,-1.1559,-1.1519,-1.1487,-1.1459,-1.1449,-1.1455,-1.1444,-1.1454,-1.1448,-1.1449,-1.1448,-1.1457,-1.1458,-1.1458,-1.1458,0,-1.1859,-1.1843,-1.1819,-1.179,-1.177,-1.1745,-1.1719,-1.1709,-1.1669,-1.1651,-1.1624,-1.1605,-1.1568,-1.154,-1.1508,-1.1487,-1.1466,-1.1462,-1.146,-1.1469,-1.1481,-1.1474,-1.1452,-1.1462,-1.1461,-1.1461,-1.1461,-1.1461,-1.1878,-1.1866,-1.1833,-1.1807,-1.1783,-1.176,-1.1745,-1.1718,-1.1695,-1.1662,-1.1643,-1.1616,-1.1585,-1.1539,-1.1519,-1.1498,-1.149,-1.1488,-1.1488,-1.1488,-1.149,-1.1485,-1.1492,-1.1492,-1.1492,-1.1492,-1.1492,0,-1.1895,-1.1872,-1.1849,-1.1813,-1.1793,-1.1775,-1.1745,-1.1729,-1.1706,-1.1679,-1.1655,-1.1624,-1.1597,-1.1564,-1.1534,-1.1524,-1.1514,-1.1518,-1.1518,-1.1513,-1.1499,-1.1503,-1.1526,-1.1526,-1.1526,-1.1526,-1.1526,-1.1526,-1.1902,-1.1881,-1.1861,-1.1828,-1.1805,-1.1779,-1.1763,-1.1741,-1.1719,-1.1685,-1.1663,-1.1641,-1.1611,-1.1579,-1.1554,-1.1545,-1.1535,-1.1542,-1.153,-1.1517,-1.1514,-1.1511,-1.1515,-1.154,-1.154,-1.1546,-1.1546,-1.1546]},{"header":{"parameterUnit":"m.s-1","parameterCategory":1,"la1":30.2991,"la2":30.254,"lo1":-89.0895,"lo2":-89.0444,"dy":0.0017,"dx":0.0017,"nx":28,"ny":28,"refTime":"2024-05-22T21:00:00:Z","depth":0,"parameterNumber":3,"parameterNumberName":"V-component_of_WINDS"},"data":[0,0,0,0,0,0,0,0,0,0,0,0,0,0,0,0,0,0,0,0,0,0,0,0,0,0,0,0,0,0,0,0,0,0,0,0,0,0,0,0,0,0,0,0,0,0,0,0,0,0,0,0,0,0,0,0,0,0,4.4008,4.4008,0,4.3987,4.3987,4.3987,4.3911,4.3909,4.3908,4.3906,4.3886,4.3887,4.3888,0,0,0,0,0,0,0,0,0,0,0,0,0,4.3985,4.3985,4.4008,4.4008,4.4008,4.3987,4.3987,4.3987,4.3911,4.3909,4.3907,4.3905,4.3886,4.3887,4.3888,0,0,0,0,0,0,0,0,0,0,0,0,0,4.3983,4.3986,4.4008,4.3968,4.3964,4.3987,4.3987,4.3987,4.3912,4.3909,4.3907,4.3904,4.3885,4.3887,4.3888,4.395,0,0,4.3893,4.3894,0,0,0,0,0,0,0,0,4.3983,4.3983,4.3974,4.3971,4.3966,4.3949,4.3971,4.3975,4.3912,4.3932,4.3906,4.3903,4.3909,4.3909,4.391,4.3949,4.3948,4.3894,4.3895,4.3895,4.3896,0,0,0,0,0,0,0,4.3983,4.3984,4.4,4.3974,4.3969,4.3951,4.3948,4.3972,4.3935,4.393,4.3924,4.3923,4.3907,4.3909,4.3909,4.3948,4.3893,4.3895,4.3896,4.3897,4.4036,4.4038,0,0,0,0,0,0,4.3989,4.3985,4.4001,4.3999,4.3968,4.3953,4.395,4.3957,4.3935,4.3929,4.3925,4.3919,4.3908,4.3908,4.3908,4.3978,4.3895,4.3897,4.3898,4.4033,4.4036,4.4039,0,0,0,0,0,0,4.3988,4.3991,4.4002,4.399,4.399,4.3957,4.3965,4.3958,4.396,4.3931,4.3924,4.3934,4.3906,4.3906,4.394,4.3977,4.3897,4.3899,4.403,4.4034,4.4038,4.4119,0,0,0,0,0,0,4.3988,4.3991,4.4014,4.3992,4.3991,4.4033,4.3968,4.396,4.3963,4.3956,4.3938,4.3932,4.3904,4.3938,4.3942,4.3977,4.39,4.4026,4.4032,4.4036,4.4113,4.4126,4.4136,0,0,0,0,0,4.3988,4.4038,4.4016,4.4018,4.4019,4.4036,4.4035,4.4001,4.3967,4.3989,4.397,4.3933,4.3972,4.3942,4.3946,4.3982,4.4024,4.403,4.4036,4.4108,4.4123,4.4136,0,0,0,0,0,0,4.4067,4.4035,4.4009,4.4054,4.4048,4.4023,4.405,4.4018,4.4022,4.4015,4.3972,4.3969,4.4009,4.3999,4.3966,4.4041,4.3992,4.3999,4.4045,4.4059,4.4071,4.4072,4.3902,0,0,0,0,0,4.409,4.4105,4.4076,4.4119,4.4117,4.4085,4.4091,4.4064,4.4057,4.4054,4.4037,4.4032,4.4042,4.4051,4.4059,4.4112,4.4106,4.4139,4.415,4.416,4.4166,4.4193,4.4206,4.4059,4.4059,4.4059,0,0,4.4137,4.4121,4.4134,4.4135,4.4127,4.4144,4.4083,4.4104,4.4116,4.4057,4.4087,4.4076,4.4066,4.411,4.4128,4.4103,4.4206,4.4168,4.4176,4.4177,4.42,4.4214,4.4227,4.4063,4.4063,4.4062,0,0,4.4231,4.4221,4.4255,4.4248,4.4237,4.4215,4.4223,4.4202,4.4192,4.4222,4.4177,4.4192,4.4212,4.4207,4.4207,4.4299,4.4265,4.4304,4.4364,4.439,4.4401,4.4411,4.4444,4.4456,4.431,4.431,4.4311,0,4.4291,4.4314,4.4276,4.43,4.4301,4.4248,4.4282,4.4278,4.427,4.4273,4.4245,4.4268,4.4258,4.4299,4.4322,4.4324,4.4332,4.4305,4.4403,4.4412,4.4421,4.4451,4.4464,4.4315,4.4315,4.4314,4.4314,0,4.4388,4.4406,4.4434,4.4427,4.4432,4.4461,4.4428,4.4437,4.4411,4.4392,4.4423,4.441,4.4414,4.4422,4.4397,4.4459,4.4444,4.441,4.436,4.4441,4.4468,4.4479,4.4322,4.432,4.4319,4.4318,0,0,4.4532,4.4503,4.4514,4.451,4.4493,4.4506,4.4533,4.4536,4.4545,4.4542,4.4563,4.4581,4.4549,4.455,4.4523,4.4547,4.462,4.451,4.4509,4.453,4.4687,4.4712,4.4726,4.4597,4.4599,4.4601,4.4687,0,4.462,4.4663,4.4629,4.4678,4.4693,4.4643,4.4665,4.4658,4.4641,4.4652,4.4634,4.4647,4.4605,4.4604,4.4625,4.4606,4.465,4.46,4.4616,4.4617,4.4619,4.474,4.4766,4.4848,4.4698,4.47,4.4701,0,4.4729,4.473,4.478,4.4759,4.4764,4.4786,4.4786,4.4797,4.4788,4.4774,4.4774,4.4742,4.4767,4.4718,4.4752,4.4718,4.4723,4.4715,4.4717,4.4717,4.4663,4.4742,4.4874,4.4886,4.4718,4.4716,4.4715,0,4.4827,4.4841,4.4872,4.487,4.4848,4.4863,4.4855,4.4843,4.4847,4.4848,4.485,4.4854,4.4856,4.4861,4.483,4.4798,4.4868,4.4817,4.4856,4.4857,4.4872,4.4872,4.5006,4.4878,4.4878,4.4877,4.4877,0,4.4929,4.4961,4.4915,4.4935,4.497,4.4931,4.4967,4.4953,4.4943,4.4959,4.4916,4.4932,4.4892,4.4904,4.4881,4.4911,4.4913,4.4902,4.4896,4.4906,4.4907,4.4907,4.49,4.4881,4.488,4.4879,4.4879,0,4.5044,4.5015,4.5045,4.5021,4.5016,4.5042,4.5022,4.5039,4.5019,4.504,4.5043,4.5012,4.5024,4.4994,4.5002,4.4986,4.503,4.5015,4.5033,4.5028,4.5069,4.5065,4.5208,4.5224,4.5086,4.5088,4.5089,0,4.511,4.5134,4.5112,4.5119,4.5112,4.5125,4.5128,4.5092,4.5097,4.5088,4.5107,4.5115,4.5119,4.514,4.5119,4.5125,4.5109,4.5158,4.5109,4.5118,4.5108,4.5107,4.5109,4.5168,4.517,4.5171,4.5172,0,4.5231,4.5215,4.5222,4.5223,4.5229,4.5228,4.5225,4.5234,4.5194,4.5203,4.5214,4.5217,4.5225,4.5233,4.5234,4.5226,4.5193,4.5188,4.5197,4.5207,4.5216,4.5211,4.506,4.5185,4.5184,4.5183,4.5182,4.5182,4.5323,4.5341,4.5328,4.5337,4.533,4.5328,4.5342,4.5324,4.5332,4.5335,4.5313,4.5329,4.5319,4.5316,4.5311,4.5323,4.5301,4.5315,4.5318,4.5322,4.5328,4.5215,4.5324,4.5323,4.5323,4.5323,4.5322,0,4.544,4.5429,4.5438,4.5434,4.5441,4.5408,4.5403,4.5411,4.5425,4.5418,4.5423,4.5436,4.5444,4.5423,4.5428,4.5442,4.5427,4.5444,4.5443,4.5441,4.5348,4.5339,4.5456,4.5456,4.5456,4.5456,4.5456,4.5456,4.5502,4.5531,4.5513,4.5539,4.5527,4.5542,4.5541,4.5539,4.5533,4.5549,4.5555,4.5541,4.5529,4.5533,4.5539,4.5532,4.5536,4.5559,4.5547,4.5461,4.5448,4.5435,4.5426,4.556,4.556,4.5639,4.564,4.564]}]]